STARLINK-30158, 57438

Orbit data source: Space-Track

STARLINK-30158, 57438 is a payload satellite owned by SpaceX/Seattle (US) in LEO that was launched on Mon, 24 Jul 2023 UTC via an FALCON 9 launch vehicle from the Air Force Eastern Test Range (AFETR). Payload-class satellites include a variety of spacecraft equipped with specific instruments for various scientific and technological missions. These include communications satellites like Starlink; space stations such as the ISS; scientific satellites like the Hubble; Earth observation satellites from companies like Planet Labs, Umbra, and HawkEye 360; GPS; miniature CubeSats for education and research; and military/defense satellites.

Loading next visibility...
Identifier
57438, 2023-105J
Orbit
LEO
Country
Flag of USUS
Related business
Manufacturer
SpaceX/Seattle
Mission
Operational Commercial Communications
Bus & Motor
STARLINK V2M, Unknown motor
Mass
730 kg wet, ~700 kg dry
Launch date (UTC)
2023-07-24 (3 years ago)
Launch vehicle
FALCON 9
Launch site
Air Force Eastern Test Range (AFETR)
Object type
Payload
Rocket body
Debris
Shape & HBR
Box + 2 Pan, 17.7 m
Radar Cross Section
33.884 m², Large (>1 m²)

Expand to show TLE details & history
Last TLE update: 2 days ago

TLE from 2 days ago
0 STARLINK-30158
1 57438U 23105J   26171.36471956  .00004828  00000-0  18490-3 0  9993
2 57438  43.0070  40.0868 0001038 317.7863  42.2909 15.27572379161288
Epoch: 2026-06-20T08:45Z
TLE epoch observation values (Epoch: 2026-06-20T08:45:11.769Z)
Latitude
-0.00002°
Longitude
0.20734°
Altitude
482.321 km
Speed
7.626 km/s
True Right ascension
02h 40m 20s
True Declination
0° 00' 00"
Sunlit
Object was in daylight at epoch
Visualization orbit readout
Latitude
Unknown
Longitude
Unknown
Altitude
Unknown
Speed
Unknown
Apparent Right ascension
Unknown
Apparent Declination
Unknown
Sunlit
N/A
Visualization observer readout
Local Sidereal Time
21:26:56
Azimuth
Unknown
Elevation
Unknown
Doppler factor
Unknown
Orbital elements
Apogee altitude
485.728 km
Perigee altitude
484.304 km
Semi-major axis
6,863.153 km
Eccentricity
0.0001
Inclination
43.007°
RAAN
40.0868°
Arg. of periapsis
317.7863°
True anomaly
42.2989°
Mean anomaly
42.2909°
Eccentric anomaly
42.2949°
Mean motion
3.81731 °/min
Orbital period
94.31 mins
BSTAR
0.0001849
Loading maneuver chart data...
Computing Atmospheric mass density...

Documentation

Showing up to 5 results
|